Location: ROBOsky.com Wild Flower Ridge Observatory
(43.9736°N, 79.9739°W)
Time: 20:12:11
(UTC-04:00)

USA 129 - Visible Passes

Search period start: 01 July 2016 00:00
Search period end: 11 July 2016 00:00
Orbit: 241 x 674 km, 97.5° (Epoch: 24 April)

Date Brightness Start Highest point End Pass type
(mag) Time Alt. Az. Time Alt. Az. Time Alt. Az.
01 Jul 4.2 04:20:48 10° SE 04:22:30 22° ENE 04:24:08 10° NNE visible
02 Jul 2.4 05:06:20 10° SSW 05:08:12 30° W 05:09:59 10° NW visible
03 Jul 4.0 04:25:33 10° SE 04:27:15 24° ENE 04:28:54 10° NNE visible
05 Jul 3.7 04:29:50 10° SE 04:31:32 26° ENE 04:33:08 10° NNE visible
07 Jul 3.5 04:33:40 10° SE 04:35:19 27° ENE 04:36:51 10° NNE visible
09 Jul 3.3 04:37:02 10° SE 04:38:36 28° ENE 04:40:03 10° N visible
